WH7F Weather Reports


time (UTC)temp
F
wind
direction
speed
knots
gust
knots
rain 1hr
in
rain 24hr
in
rain mn
in
humidity
%
barometer
mb
20260510192518 86 146 0.9 3.5 0.00 0.06 0.00 44 1013.3
20260510191517 88 157 0.9 3.5 0.00 0.06 0.00 42 1013.3
20260510190520 93 143 0.9 3.5 0.00 0.06 0.00 41 1013.3
20260510185529 95 156 0.9 3.5 0.00 0.06 0.00 41 1013.4
20260510184540 94 197 0.9 2.6 0.00 0.08 0.00 42 1013.4
20260510183517 93 234 0.9 3.5 0.00 0.08 0.00 42 1013.4
20260510182522 97 137 0.9 2.6 0.00 0.08 0.00 41 1013.3
20260510181521 98 170 0.9 2.6 0.00 0.08 0.00 41 1013.5
20260510180523 101 245 0.9 2.6 0.00 0.08 0.00 38 1013.6
20260510175517 102 209 0.9 1.7 0.00 0.08 0.00 41 1013.6
20260510174522 102 218 0.9 3.5 0.00 0.08 0.00 44 1013.6
20260510173519 101 139 0.9 1.7 0.00 0.08 0.00 44 1013.5
20260510172518 100 157 0.0 1.7 0.00 0.08 0.00 46 1013.6
20260510171521 99 23 0.9 1.7 0.00 0.08 0.00 52 1013.6
20260510170522 97 144 0.9 1.7 0.00 0.08 0.00 67 1013.8
20260510165519 96 142 0.9 1.7 0.00 0.08 0.00 72 1013.8
20260510164516 94 90 0.9 1.7 0.00 0.08 0.00 78 1014.0
20260510163543 92 126 0.9 3.5 0.00 0.08 0.00 78 1014.1
20260510162602 92 93 0.0 1.7 0.00 0.08 0.00 79 1014.1
20260510161526 91 94 0.9 1.7 0.00 0.08 0.00 82 1014.2
20260510160536 88 90 0.0 0.9 0.00 0.08 0.00 85 1014.2
20260510155523 85 78 0.0 1.7 0.00 0.08 0.00 86 1014.2
20260510154520 84 97 0.9 1.7 0.00 0.08 0.00 87 1014.2
20260510153519 82 34 0.9 2.6 0.00 0.08 0.00 87 1014.2
20260510152522 81 32 0.9 2.6 0.00 0.08 0.00 88 1014.3
20260510151521 79 30 0.9 1.7 0.00 0.08 0.00 88 1014.2
20260510150520 79 71 0.9 1.7 0.00 0.08 0.00 88 1013.9
20260510145516 78 52 0.0 1.7 0.00 0.08 0.00 89 1013.8
20260510144522 76 68 0.9 0.9 0.00 0.08 0.00 91 1013.7
20260510143521 75 44 0.9 1.7 0.00 0.08 0.00 91 1013.5
20260510142542 74 68 0.9 1.7 0.00 0.08 0.00 90 1013.5
20260510141516 72 58 0.9 1.7 0.00 0.08 0.00 92 1013.6
20260510140521 72 68 0.9 1.7 0.00 0.08 0.00 93 1013.7
20260510135519 71 52 0.0 1.7 0.00 0.08 0.00 95 1013.7
20260510134540 68 0.0 0.0 0.00 0.08 0.00 96 1013.8
20260510133525 63 0.0 0.0 0.00 0.08 0.00 97 1013.6
20260510132523 60 112 0.0 0.0 0.00 0.08 0.00 98 1013.8
20260510131520 59 241 0.0 0.9 0.00 0.08 0.00 98 1014.0
20260510130515 58 8 0.0 0.9 0.00 0.08 0.00 98 1014.0
20260510125523 57 0.0 0.0 0.00 0.08 0.00 98 1014.1
20260510124522 57 33 0.0 0.9 0.00 0.08 0.00 99 1014.0
20260510123528 56 52 0.0 1.7 0.00 0.08 0.00 99 1014.0
20260510122517 56 0.0 0.0 0.00 0.08 0.00 98 1013.9
20260510121522 56 0.0 0.0 0.00 0.08 0.00 98 1013.9
20260510120519 55 0.0 0.0 0.00 0.08 0.00 99 1013.8
20260510115518 55 0.0 0.0 0.00 0.08 0.00 99 1013.8
20260510114522 54 22 0.0 0.0 0.00 0.08 0.00 98 1013.8
20260510113530 54 0.0 0.0 0.00 0.08 0.00 98 1013.6
20260510112539 53 0.0 0.0 0.00 0.08 0.00 98 1013.4
20260510111516 54 0.0 0.0 0.00 0.08 0.00 98 1013.2
20260510110521 54 0.0 0.0 0.00 0.08 0.00 97 1012.9
20260510105538 56 0.0 0.0 0.00 0.08 0.00 97 1012.7
20260510104521 61 0.0 0.0 0.00 0.08 0.00 97 1012.7
20260510103530 51 0.0 0.0 0.00 0.08 0.00 97 1012.4
20260510102521 51 0.0 0.0 0.00 0.08 0.00 97 1012.2
20260510101519 51 0.0 0.0 0.00 0.08 0.00 97 1012.3
20260510100517 51 0.0 0.0 0.00 0.08 0.00 97 1012.4
20260510095522 52 0.0 0.0 0.00 0.08 0.00 98 1012.3
20260510094523 52 0.0 0.0 0.00 0.08 0.00 98 1012.4
20260510093518 52 0.0 0.0 0.00 0.08 0.00 97 1012.2
20260510092517 52 0.0 0.0 0.00 0.08 0.00 97 1012.2
20260510091522 52 0.0 0.0 0.00 0.08 0.00 97 1012.1
20260510090519 52 0.0 0.0 0.00 0.08 0.00 97 1011.9
20260510085524 52 0.0 0.0 0.00 0.08 0.00 97 1011.8
20260510084523 52 0.0 0.0 0.00 0.08 0.00 98 1011.7
20260510083522 51 0.0 0.0 0.00 0.08 0.00 97 1011.6
20260510082519 51 0.0 0.0 0.00 0.08 0.00 97 1011.4
20260510081516 51 0.0 0.0 0.00 0.08 0.00 97 1011.2
20260510080523 52 0.0 0.0 0.00 0.08 0.00 97 1011.0
20260510075522 52 0.0 0.0 0.00 0.08 0.00 97 1011.1
20260510074519 52 0.0 0.0 0.00 0.08 0.00 96 1011.0
20260510073516 52 0.0 0.0 0.00 0.08 0.00 97 1010.9
20260510072523 52 0.0 0.0 0.00 0.08 0.00 97 1010.9
20260510071520 52 0.0 0.0 0.00 0.08 0.00 97 1010.8
20260510070543 53 0.0 0.0 0.00 0.08 0.00 97 1010.9
20260510065530 53 0.0 0.0 0.00 0.08 0.00 97 1010.7
20260510064542 53 0.0 0.0 0.00 0.08 0.00 97 1010.8
20260510063520 53 0.0 0.0 0.00 0.08 0.00 97 1010.7
20260510062537 53 0.0 0.0 0.00 0.08 0.00 97 1010.7
20260510061524 53 0.0 0.0 0.00 0.08 0.00 97 1010.6
20260510060523 53 0.0 0.0 0.00 0.08 0.00 97 1010.6
20260510055518 54 0.0 0.0 0.00 0.08 0.00 96 1010.6
20260510054517 54 0.0 0.0 0.00 0.08 0.00 97 1010.7
20260510053522 54 0.0 0.0 0.00 0.08 0.00 96 1010.7
20260510052521 54 0.0 0.0 0.00 0.08 0.00 96 1010.8
20260510051526 54 0.0 0.0 0.00 0.08 0.00 96 1010.8
20260510050523 54 0.0 0.0 0.00 0.08 0.00 96 1011.0
20260510045542 54 0.0 0.0 0.00 0.08 0.00 96 1011.0
20260510044539 55 0.0 0.0 0.00 0.08 0.00 96 1010.8
20260510043538 55 0.0 0.0 0.00 0.08 0.00 96 1010.9
20260510042524 55 0.0 0.0 0.00 0.08 0.00 96 1010.8
20260510041530 55 0.0 0.0 0.00 0.08 0.00 96 1010.8
20260510040539 55 0.0 0.0 0.00 0.08 0.00 96 1010.7
20260510035516 56 0.0 0.0 0.00 0.08 0.08 96 1010.7
20260510034543 56 0.0 0.0 0.00 0.08 0.08 96 1010.8
20260510033520 56 0.0 0.0 0.00 0.08 0.08 96 1010.5
20260510032543 56 0.0 0.0 0.00 0.08 0.08 96 1010.6
20260510031532 56 0.0 0.0 0.00 0.08 0.08 96 1010.5
20260510030523 57 0.0 0.0 0.00 0.08 0.08 96 1010.4
20260510025520 57 0.0 0.0 0.00 0.08 0.08 96 1010.4
20260510024537 57 0.0 0.0 0.00 0.08 0.08 96 1010.5
20260510023558 58 0.0 0.0 0.00 0.08 0.08 96 1010.4
20260510022543 58 0.0 0.0 0.00 0.08 0.08 96 1010.4
20260510021520 58 0.0 0.0 0.00 0.08 0.08 95 1010.4
20260510020537 58 0.0 0.0 0.00 0.08 0.08 95 1010.4
20260510015522 58 0.0 0.0 0.00 0.08 0.08 95 1010.2
20260510014541 58 0.0 0.0 0.00 0.08 0.08 95 1010.2
20260510013528 59 0.0 0.0 0.00 0.08 0.08 95 1010.0
20260510012516 59 0.0 0.0 0.00 0.08 0.08 95 1010.0
20260510011522 59 0.0 0.0 0.00 0.08 0.08 94 1009.9
20260510010539 59 0.0 0.0 0.00 0.08 0.08 94 1009.8
20260510005518 60 0.0 0.0 0.00 0.08 0.08 95 1009.8
20260510004519 60 0.0 0.0 0.00 0.08 0.08 95 1009.7
20260510003529 60 0.0 0.0 0.00 0.08 0.08 95 1009.5
20260510002520 60 0.0 0.0 0.00 0.08 0.08 95 1009.5
20260510001535 61 0.0 0.0 0.06 0.08 0.08 94 1009.6
20260510000523 61 0.0 0.9 0.06 0.08 0.08 94 1009.4
20260509235516 61 0.0 0.0 0.06 0.08 0.08 94 1009.3
20260509234524 62 128 0.0 0.0 0.06 0.08 0.08 94 1009.2
20260509233658 63 0.0 0.0 0.06 0.08 0.08 92 1009.2
20260509232522 66 0.0 0.0 0.06 0.08 0.08 90 1009.0
20260509231539 67 96 0.0 0.0 0.00 0.03 0.03 89 1009.2
20260509230559 68 136 0.0 0.9 0.00 0.03 0.03 89 1009.1
20260509225515 68 95 0.0 2.6 0.00 0.03 0.03 89 1009.1
20260509224524 69 53 0.0 0.0 0.00 0.03 0.03 89 1009.1
20260509223515 70 185 0.9 1.7 0.00 0.03 0.03 88 1009.2
20260509222516 70 200 0.9 3.5 0.00 0.03 0.03 89 1009.1
20260509221515 70 210 0.0 3.5 0.00 0.03 0.03 89 1009.2
20260509220520 71 198 0.0 1.7 0.00 0.03 0.03 89 1009.1
20260509215517 72 48 0.0 0.9 0.00 0.03 0.03 88 1009.1
20260509214516 75 140 0.0 2.6 0.00 0.03 0.03 87 1009.0
20260509213517 80 157 0.9 3.5 0.00 0.03 0.03 86 1009.1
20260509212520 85 292 0.0 1.7 0.00 0.03 0.03 84 1009.0
20260509211538 85 187 0.9 2.6 0.00 0.03 0.03 84 1009.0
20260509210524 84 207 0.9 2.6 0.00 0.03 0.03 85 1008.8
20260509205517 84 164 0.9 4.3 0.00 0.03 0.03 83 1008.9
20260509204520 84 52 0.9 2.6 0.00 0.03 0.03 83 1009.0
20260509203517 82 111 0.0 3.5 0.00 0.03 0.03 83 1008.9
20260509202522 77 42 0.0 0.9 0.00 0.03 0.03 86 1009.1
20260509201517 70 0.0 0.0 0.00 0.03 0.03 89 1009.3
20260509200524 69 29 0.0 0.0 0.00 0.03 0.03 89 1009.4
20260509195557 69 30 0.0 1.7 0.00 0.03 0.03 89 1009.5
20260509194522 69 0.0 0.0 0.03 0.03 0.03 89 1009.5
20260509193538 68 0.0 0.9 0.03 0.03 0.03 89 1009.7